Погода в Архарове

Россия / Орловская область     52°28′16″N   36°41′58″E
темп.,
°C
ветер,
м/с
пор.,
м/с
влажн.,
%
обл.,
%
осадки,
мм/ч
давл.,
гПа
погр.,
м
28 ноября, вс
вс2800:00+4ю51298100 0.0 1004315
03:00+4ююз51198100 0.0 1004334
06:00+5юз5995100 0.0 1005368
09:00+4ююз379849 0.0 1006199
12:00+5юз368685 0.0 1008294
15:00+6ю238621 0.0 1008101
18:00+4ююв479493 0.0 1009126
21:00+5ююв5890100 0.0 1009397
29 ноября, пн
пн2900:00+4юв41193100 0.0 1008303
03:00+4юв51195100 0.0 1006278
06:00+4вюв41098100 0.0 1004220
09:00+5в41099100 1.3 1001324
12:00+5юв3899100 0.3 999235
15:00+7ю41099100 0.5 997320
18:00+7юв51196100 0.0 993366
21:00+8юв61497100 6.0 986573
30 ноября, вт
вт3000:00+8ююв51298100 7.3 979475
03:00+8ююз71393100 11.4 977541
06:00+7юз71395100 1.5 975676
09:000зюз142396100 6.3 9831095
12:00+1зюз132185100 3.9 9881127
15:00+1юз12188183 3.9 9901228
18:00+1юз9168394 0.0 9911230
21:000юз8159298 0.1 9921018
1 декабря, ср
ср100:00−1зюз91381100 0.1 9921028
03:00−2зюз8128596 0.3 993995
06:00−2з81386100 0.1 9921106
09:00−2з71293100 0.6 9941029
12:00−3з81293100 1.3 996998
15:00−3з81290100 2.0 997946
18:00−3з71284100 0.1 1000843
21:00−4з71288100 0.1 1001704
2 декабря, чт
чт200:00−5зсз6119095 0.0 1003600
03:00−6зюз499181 0.0 1005380
06:00−5юз3893100 0.0 1006301
09:00−4ю51287100 0.0 1006437
12:00−2ююз71695100 0.3 1004670
15:000ююз81594100 1.3 1003654
18:00+1юз7158990 0.2 1004550
21:00+1юз61590100 0.2 1005436